Weather History for PAGS - September, 2011

Change the Weather History Date:

Wednesday, September 21, 2011

  Actual Average Record
Temperature  
Mean Temperature 52 °F -  
Max Temperature 57 °F 58 °F 67 °F (1984)
Min Temperature 48 °F 41 °F 25 °F (1955)
Degree Days  
Heating Degree Days 12    
Growing Degree Days 2 (Base 50)    
Moisture  
Dew Point 46 °F    
Average Humidity 83    
Maximum Humidity 94    
Minimum Humidity 59    
Precipitation  
Precipitation 0.00 in - - ()
Sea Level Pressure  
Sea Level Pressure 29.12 in    
Wind  
Wind Speed 9 mph (ENE)    
Max Wind Speed 36 mph    
Max Gust Speed 52 mph    
Visibility 10 miles    
Events      
Averages and records for this station are not official NWS values.
T = Trace of Precipitation, MM = Missing Value Source: NWS Daily Summary

Daily Weather History Graph

Daily Weather History Graph

Search for Another Location

Airport or City:

Trip Planner

Search our weather history database for the weather conditions in past years. The results will help you decide how hot, cold, wet, or windy it might be!

Date:

Astronomy

Sep. 21, 2011 Rise Set
Actual Time 6:45 AM AKDT 7:05 PM AKDT
Civil Twilight 6:05 AM AKDT 7:45 PM AKDT
Nautical Twilight 5:17 AM AKDT 8:32 PM AKDT
Astronomical Twilight 4:25 AM AKDT 9:24 PM AKDT
Moon No Moon Rise 4:34 PM AKDT (9/21)
Length of Visible Light 13h 39m
Length of Day
12h 20m
Last Quarter, 37% of the Moon is Illuminated
Sep 21
Last Quarter
Sep 27
New
Oct 3
First Quarter
Oct 11
Full
Oct 19
Last Quarter

Hourly Weather History & Observations

Time (AKDT) Temp. Dew Point Humidity Pressure Visibility Wind Dir Wind Speed Gust Speed Precip Events Conditions
12:16 AM 53.6 °F 46.4 °F 77% 29.38 in 10.0 mi SE 4.6 mph - N/A   Overcast
12:36 AM 53.6 °F 46.4 °F 77% 29.36 in 10.0 mi Calm Calm - N/A   Overcast
12:56 AM 51.8 °F 46.4 °F 82% 29.35 in 10.0 mi Calm Calm - N/A   Overcast
1:16 AM 51.8 °F 46.4 °F 82% 29.35 in 10.0 mi SE 5.8 mph - N/A   Overcast
1:36 AM 51.8 °F 46.4 °F 82% 29.32 in 9.0 mi ESE 6.9 mph - N/A   Overcast
1:56 AM 51.8 °F 46.4 °F 82% 29.31 in 10.0 mi Calm Calm - N/A   Overcast
2:16 AM 51.8 °F 46.4 °F 82% 29.30 in 10.0 mi NW 3.5 mph - N/A   Overcast
2:36 AM 50.0 °F 48.2 °F 94% 29.28 in 10.0 mi NNW 4.6 mph - N/A   Overcast
2:56 AM 50.0 °F 46.4 °F 87% 29.27 in 10.0 mi NNW 6.9 mph - N/A   Overcast
3:16 AM 50.0 °F 46.4 °F 87% 29.25 in 10.0 mi NNW 8.1 mph - N/A   Overcast
3:36 AM 50.0 °F 46.4 °F 87% 29.22 in 10.0 mi NNW 8.1 mph - N/A   Overcast
3:56 AM 50.0 °F 46.4 °F 87% 29.20 in 10.0 mi NNW 8.1 mph - N/A   Overcast
4:16 AM 50.0 °F 46.4 °F 87% 29.17 in 10.0 mi NNW 8.1 mph - N/A   Overcast
4:36 AM 48.2 °F 46.4 °F 93% 29.14 in 10.0 mi NNW 8.1 mph - N/A   Overcast
4:56 AM 48.2 °F 46.4 °F 93% 29.11 in 10.0 mi NW 6.9 mph - N/A   Overcast
5:16 AM 50.0 °F 46.4 °F 87% 29.09 in 10.0 mi NW 6.9 mph - N/A   Overcast
5:36 AM 50.0 °F 46.4 °F 87% 29.07 in 10.0 mi NW 5.8 mph - N/A   Overcast
5:56 AM 48.2 °F 46.4 °F 93% 29.05 in 10.0 mi NNW 6.9 mph - N/A   Overcast
6:16 AM 48.2 °F 46.4 °F 93% 29.03 in 10.0 mi NW 4.6 mph - N/A   Overcast
6:36 AM 48.2 °F 46.4 °F 93% 29.00 in 10.0 mi Calm Calm - N/A   Overcast
6:56 AM 48.2 °F 46.4 °F 93% 28.98 in 10.0 mi NNW 4.6 mph - N/A   Overcast
7:16 AM 48.2 °F 46.4 °F 93% 28.96 in 10.0 mi NNW 9.2 mph - N/A   Overcast
8:16 AM 50.0 °F 46.4 °F 87% 28.92 in 10.0 mi North 10.4 mph - N/A   Overcast
8:36 AM 48.2 °F 44.6 °F 87% 28.90 in 10.0 mi North 13.8 mph - N/A   Overcast
8:56 AM 48.2 °F 44.6 °F 87% 28.89 in 10.0 mi North 12.7 mph - N/A   Overcast
9:16 AM 48.2 °F 44.6 °F 87% 28.89 in 10.0 mi NW 11.5 mph - N/A   Overcast
9:36 AM 50.0 °F 44.6 °F 82% 28.90 in 10.0 mi North 4.6 mph - N/A   Overcast
10:16 AM 53.6 °F 46.4 °F 77% 28.88 in 10.0 mi NNW 5.8 mph - N/A   Overcast
10:36 AM 55.4 °F 44.6 °F 67% 28.88 in 10.0 mi ESE 20.7 mph 31.1 mph N/A   Overcast
10:56 AM 55.4 °F 44.6 °F 67% 28.87 in 10.0 mi East 10.4 mph - N/A   Overcast
11:16 AM 57.2 °F 44.6 °F 63% 28.87 in 10.0 mi ESE 12.7 mph 20.7 mph N/A   Overcast
12:56 PM 57.2 °F 42.8 °F 59% 28.86 in 10.0 mi SE 33.4 mph 41.4 mph N/A   Overcast
1:16 PM 53.6 °F 44.6 °F 72% 28.88 in 9.0 mi SE 35.7 mph 49.5 mph N/A   Overcast
1:36 PM 51.8 °F 44.6 °F 76% 28.88 in 10.0 mi SE 32.2 mph 51.8 mph N/A   Overcast
1:56 PM 51.8 °F 44.6 °F 76% 28.90 in 5.0 mi SE 35.7 mph 51.8 mph N/A   Overcast
2:16 PM 51.8 °F 46.4 °F 82% 28.91 in 5.0 mi SE 35.7 mph 44.9 mph N/A   Overcast
2:36 PM 51.8 °F 44.6 °F 76% 28.94 in 5.0 mi SE 34.5 mph 47.2 mph N/A   Overcast
5:56 PM 50.0 °F 44.6 °F 82% 29.16 in 9.0 mi SSE 18.4 mph 25.3 mph N/A   Overcast
6:16 PM 50.0 °F 44.6 °F 82% 29.17 in 10.0 mi SSE 12.7 mph 18.4 mph N/A   Overcast
7:16 PM 51.8 °F 46.4 °F 82% 29.20 in 10.0 mi SE 19.6 mph 27.6 mph N/A   Overcast
8:16 PM 50.0 °F 46.4 °F 87% 29.24 in 9.0 mi SE 16.1 mph - N/A   Overcast
9:56 PM 50.0 °F 44.6 °F 82% 29.30 in 10.0 mi SE 19.6 mph 25.3 mph N/A   Overcast
10:16 PM 50.0 °F 44.6 °F 82% 29.31 in 10.0 mi SE 17.3 mph 24.2 mph N/A   Overcast
10:36 PM 50.0 °F 44.6 °F 82% 29.32 in 10.0 mi SE 19.6 mph 26.5 mph N/A   Overcast
10:56 PM 50.0 °F 44.6 °F 82% 29.34 in 10.0 mi SE 18.4 mph 24.2 mph N/A   Overcast
11:16 PM 51.8 °F 44.6 °F 76% 29.35 in 10.0 mi SE 16.1 mph 20.7 mph N/A   Overcast
11:36 PM 50.0 °F 44.6 °F 82% 29.37 in 10.0 mi SE 18.4 mph 25.3 mph N/A   Overcast
11:56 PM 50.0 °F 44.6 °F 82% 29.39 in 9.0 mi SSE 15.0 mph 21.9 mph N/A   Overcast